Погода в Архангельске

Хотите узнать прогноз погоды в Архангельске? Тогда Вам сюда: Погода в Архангельске

Поиск расширенной информации на нашем сайте:

Полезная информация:

Новости сайта



02.01.2020
Опубликован Долгосрочный прогноз погоды по городам России и ближнего зарубежья на январь 2020 года.
Карты: Прогноз на январь и февраль 2020 года, Сравнение прогнозируемой аномалии приземной температуры воздуха на январь 2020 года по разным моделям.




Погода в Архангельске - сегодня

Время (UTC), дата Ветер
(°,м/с) 
Видим.   Явления Облачность Т
(°С)
Тd
(°С)
f(%) Тe
(°С)
Pmin
(гПа)
dP
(гПа)
Po
(мм)
O2
(г/м3)
Тmin Tmax R s Состояние
почвы
15 29.11.20 160 (Ю) 13000 м    10/10 210 м 
[St]
-8.1 -8.9 94 -11  1037.1  -0.8  777  324    -8.1       
18 29.11.20 160 (Ю) 18000 м    10/10 330 м 
[St]
-7.8 -8.8 93 -9  1037  0.1  777  323           
21 29.11.20 160 (Ю) 15000 м    10/10 210 м 
[St]
-7.3 -8.3 93 -10  1036.1  -0.9  776  322           
00 30.11.20 160 (Ю) 20000 м    10/10 240 м 
[St]
-6.4 -7.5 92 -9  1034.9  -1.2  775  321           
03 30.11.20 150 (ЮВ) 14000 м  в посл. час снег  10/10 210 м 
[St]
-5.1 -6.2 92 -7  1033.3  -1.6  774  319  -8.4    0.2  равномерный
сухой снег
100% 
06 30.11.20 160 (Ю) 17000 м  {снег}  10/10 210 м 
[St]
-4.7 -5.2 96 -7  1032.4  -0.9  773  318           
09 30.11.20 150 (ЮВ) 10 км    10/10 180 м 
[St]
-3.7 -4.8 92 -7  1031.9  -0.5  773  316           
12 30.11.20 170 (Ю) 4{10}  10 км  {снег}  10/10 210 м 
[St]
-3.2 -4.3 92 -6  1030.3  -1.6  772  315           
15 30.11.20 160 (Ю) 19000 м    10/10 240 м 
[St]
-2.3 -2.9 96 -4  1028.7  -1.7  771  314    -2.3  0.0     
18 30.11.20 150 (ЮВ) 20000 м    10/10 800 м 
[St]
-1.2 -2.4 92 -3  1026.3  -2.4  769  312           
21 30.11.20 170 (Ю) 8000 м  снежные зёрна  10/10 360 м 
[St]
-0.8 -1.6 94 -3  1024.6  -1.7  768  310           
00 01.12.20 170 (Ю) 11000 м  {снег}  10/10 210 м 
[St]
-0.2 -1 94 -3  1022.9  -1.7  766  309           
03 01.12.20 170 (Ю) 7000 м  слаб. снег  10/10 600 м 
[Ns]
+0.1 -0.9 93 -2  1021.8  -1.1  766  309  -2.3    0.4  равномерный
сухой снег
100% 
06 01.12.20 180 (Ю) 18000 м  {ливн. осадки, снег}  10/10 500 м кучево-дожд. 
[Cb cap]
+0.4 -0.9 91 -1  1021.9  766  308           
09 01.12.20 180 (Ю) 10 км    10/10 480 м кучево-дожд. 
[Cb cap]
+0.7 -1.5 85 -2  1021.8  0.1  766  308           
12 01.12.20 190 (Ю) 10 км    9/9 570 м кучево-дожд. 
[Cb cap]
-0.2 -2.3 86 -2  1021.6  -0.2  765  309           
15 01.12.20 210 (ЮЗ) 21000 м    9/9 800 м 
[Sc]
-0.8 -3.1 84 -3  1022.1  -0.2  766  310    +0.7       
18 01.12.20 180 (Ю) 21000 м    9/9 700 м 
[Sc]
-0.6 -2.5 87 -3  1022  0.1  766  310           
21 01.12.20 170 (Ю) 20000 м    9/5 600 м средняя 
[Sc|Ac As]
-0.4 -2.3 87 -2  1021.8  -0.3  766  309           
00 02.12.20 180 (Ю) 6000 м  слаб. снег{ливн. осадки}  10/10 570 м 
[Ns]
-0.3 -1.4 92 -2  1020.6  -1.2  765  309           
03 02.12.20 230 (ЮЗ) 9000 м  слаб. снег  10/10 660 м 
[Ns]
+0.8 -0.7 90 -1  1021.5  0.9  765  308  -1.1    0.5  равномерный
сухой снег
100% 
06 02.12.20 240 (ЮЗ) 20000 м  {снег}  10/10 330 м 
[St]
+0.6 -0.8 90 -1  1023.8  2.3  767  309           
09 02.12.20 230 (ЮЗ) 10 км    10/10 400 м 
[Sc]
+0.5 -1.1 89 1026  2.2  769  309           
12 02.12.20 230 (ЮЗ) 10 км    10/10 960 м 
[Sc]
+0.6 -1.1 88 -1  1027.3  1.3  770  310           
15 02.12.20 210 (ЮЗ) 22000 м    10/10 720 м 
[Sc]
+0.1 -1.8 87 -1  1027.6  0.3  770  310    +0.9  0.0     
Время (UTC), дата Ветер
(°,м/с) 
Видим.   Явления Облачность Т
(°С)
Тd
(°С)
f(%) Тe
(°С)
Pmin
(гПа)
dP
(гПа)
Po
(мм)
O2
(г/м3)
Тmin Tmax R s Состояние
почвы

Для получения пояснительной информации подведите курсор к названию столбца.

ПОГОДА в Архангельске - архив

Всё, что Вы хотите узнать о погоде в Архангельске - удобно и подробно!

Выберите нужную дату (начиная с 1 января 2019* года) и нажмите кнопку "Найти".
Будут отображены архивные сводки погоды по пункту Архангельск, начиная с указанной даты.


Отображать данные в формате CSV (для использования в таблицах Excel)


Внимание! Наш архив погоды предназначен исключительно для личного некоммерческого использования в познавательных целях. Если Вам необходимы официальные справки о состоянии погоды (для производственных, юридических, коммерческих и т.п. целей), обращайтесь в органы Росгидромета.

*Примечание: данная дата относится к архиву по метеостанциям СССР (Россия, СНГ, Балтия).
Архив по метеостанциям Зарубежной Европы и Азии (кроме Китая) хранится 10 дней, по другим регионам земного шара (Китай, Африка, Америка, Австралия, Океания) - 1 день.

Архангельск - район местоположения метеостанции


Название, широта, долгота, высота метеостанции:
Архангельск (город) 64.5°ш. 40.7°д. 8 м над ур. моря [Российская Федерация]

Дополнительная информация

В oтличие oт бoльшинства пoгoдных сайтoв мы публикуем пoдрoбную метеoинфoрмацию в детальнoм прoфессиoнальнoм фoрмате.

Характеристики температуры и влажнoсти вoздуха измеряются на высoте 2 м в тени вдали oт зданий и деревьев.
Скoрoсть ветра измеряется на высoте 10 м (на урoвне рoста челoвека скoрoсть ветра ниже в 1.5-2 раза). Если метеoстанция нахoдится в гoрoде или в лесу, тo скoрoсть ветра занижена на 2-4 м/с пo сравнению с oткрытым местoм. Скoрoсть ветра над акватoриями крупных рек и oзёр, а также на вершинах хoлмoв на 2-5 м/с выше, чем в oбычных услoвиях.
Атмoсфернoе давление в разных тoчках местнoсти мoжет значительнo oтличаться oт давления на метеoстанции, в зависимoсти oт услoвий рельефа (при пoдъёме на 10 м давление пoнижается примернo на 1 мм рт.ст.).